"Sample Date","Sample Time","Sensor Name","Sample Value","Units","Flow Rate","Sample Interval","Sample Volume","Laser Status","Number Channels","Micron Size 0","Counts/Channel 0","Micron Size 1","Counts/Channel 1","Micron Size 2","Counts/Channel 2","Micron Size 3","Counts/Channel 3","Micron Size 4","Counts/Channel 4","Micron Size 5","Counts/Channel 5","Micron Size 6","Counts/Channel 6","Micron Size 7","Counts/Channel 7","Micron Size 8","Counts/Channel 8","Micron Size 9","Counts/Channel 9","Micron Size 10","Counts/Channel 10","Micron Size 11","Counts/Channel 11","Micron Size 12","Counts/Channel 12","Micron Size 13","Counts/Channel 13","Micron Size 14","Counts/Channel 14","Micron Size 15","Counts/Channel 15","Micron Size 16","Counts/Channel 16","Micron Size 17","Counts/Channel 17","Micron Size 18","Counts/Channel 18","Micron Size 19","Counts/Channel 19","Micron Size 20","Counts/Channel 20","Micron Size 21","Counts/Channel 21","Micron Size 22","Counts/Channel 22","Micron Size 23","Counts/Channel 23","Micron Size 24","Counts/Channel 24","Micron Size 25","Counts/Channel 25","Micron Size 26","Counts/Channel 26","Micron Size 27","Counts/Channel 27","Micron Size 28","Counts/Channel 28","Micron Size 29","Counts/Channel 29","Micron Size 30","Counts/Channel 30","Micron Size 31","Counts/Channel 31"
"07/11/06","10:00:04","AMMA06",70531.000,"cc",28332.973,6.00,2833.297,1,6,0.100,38575.000,0.200,24585.000,0.300,5648.000,0.500,1074.000,1.000,649.000,5.000,0
"07/11/06","10:00:10","AMMA06",68983.000,"cc",28263.455,6.00,2826.346,1,6,0.100,38359.000,0.200,24019.000,0.300,5325.000,0.500,851.000,1.000,429.000,5.000,0
"07/11/06","10:00:16","AMMA06",67508.000,"cc",28294.701,6.00,2829.470,1,6,0.100,37685.000,0.200,23800.000,0.300,5017.000,0.500,634.000,1.000,372.000,5.000,0
"07/11/06","10:00:22","AMMA06",68726.000,"cc",28332.602,6.00,2833.260,1,6,0.100,38257.000,0.200,24007.000,0.300,5186.000,0.500,812.000,1.000,463.000,5.000,1.000
"07/11/06","10:00:28","AMMA06",66439.000,"cc",28324.902,6.00,2832.491,1,6,0.100,37380.000,0.200,23447.000,0.300,4890.000,0.500,486.000,1.000,236.000,5.000,0
"07/11/06","10:00:34","AMMA06",65728.000,"cc",28335.631,6.00,2833.563,1,6,0.100,37187.000,0.200,23347.000,0.300,4599.000,0.500,419.000,1.000,176.000,5.000,0
"07/11/06","10:00:40","AMMA06",65943.000,"cc",28299.166,6.00,2829.917,1,6,0.100,37168.000,0.200,23467.000,0.300,4760.000,0.500,367.000,1.000,181.000,5.000,0
"07/11/06","10:00:46","AMMA06",66315.000,"cc",28296.777,6.00,2829.678,1,6,0.100,37426.000,0.200,23427.000,0.300,4780.000,0.500,450.000,1.000,232.000,5.000,0
"07/11/06","10:00:52","AMMA06",66073.000,"cc",28249.482,6.00,2824.949,1,6,0.100,37281.000,0.200,23352.000,0.300,4818.000,0.500,425.000,1.000,196.000,5.000,1.000
"07/11/06","10:00:58","AMMA06",65484.000,"cc",28332.000,6.00,2833.200,1,6,0.100,37096.000,0.200,23320.000,0.300,4507.000,0.500,395.000,1.000,166.000,5.000,0
"07/11/06","10:01:04","AMMA06",65982.000,"cc",28342.420,6.00,2834.242,1,6,0.100,37389.000,0.200,23329.000,0.300,4704.000,0.500,351.000,1.000,209.000,5.000,0
"07/11/06","10:01:10","AMMA06",67813.000,"cc",28365.395,6.00,2836.540,1,6,0.100,37596.000,0.200,24135.000,0.300,5088.000,0.500,606.000,1.000,388.000,5.000,0
"07/11/06","10:01:16","AMMA06",66560.000,"cc",28297.477,6.00,2829.748,1,6,0.100,37226.000,0.200,23634.000,0.300,4890.000,0.500,526.000,1.000,284.000,5.000,0
"07/11/06","10:01:22","AMMA06",66407.000,"cc",28306.463,6.00,2830.647,1,6,0.100,37311.000,0.200,23573.000,0.300,4740.000,0.500,505.000,1.000,278.000,5.000,0
"07/11/06","10:01:28","AMMA06",65540.000,"cc",28345.781,6.00,2834.578,1,6,0.100,37051.000,0.200,23319.000,0.300,4603.000,0.500,398.000,1.000,169.000,5.000,0
"07/11/06","10:01:34","AMMA06",65566.000,"cc",28343.945,6.00,2834.395,1,6,0.100,37145.000,0.200,23162.000,0.300,4653.000,0.500,391.000,1.000,214.000,5.000,1.000
"07/11/06","10:01:40","AMMA06",68130.000,"cc",28330.682,6.00,2833.068,1,6,0.100,37812.000,0.200,23916.000,0.300,5218.000,0.500,773.000,1.000,411.000,5.000,0
"07/11/06","10:01:46","AMMA06",67004.000,"cc",28290.699,6.00,2829.070,1,6,0.100,37209.000,0.200,23912.000,0.300,5016.000,0.500,574.000,1.000,293.000,5.000,0
"07/11/06","10:01:52","AMMA06",65805.000,"cc",28317.447,6.00,2831.745,1,6,0.100,37003.000,0.200,23332.000,0.300,4721.000,0.500,481.000,1.000,268.000,5.000,0
"07/11/06","10:01:58","AMMA06",65394.000,"cc",28263.951,6.00,2826.395,1,6,0.100,36988.000,0.200,23179.000,0.300,4638.000,0.500,386.000,1.000,203.000,5.000,0
"07/11/06","10:02:04","AMMA06",65308.000,"cc",28324.629,6.00,2832.463,1,6,0.100,36974.000,0.200,23119.000,0.300,4556.000,0.500,444.000,1.000,214.000,5.000,1.000
"07/11/06","10:02:10","AMMA06",66187.000,"cc",28346.336,6.00,2834.634,1,6,0.100,37581.000,0.200,23047.000,0.300,4780.000,0.500,499.000,1.000,279.000,5.000,1.000
"07/11/06","10:02:16","AMMA06",66003.000,"cc",28312.498,6.00,2831.250,1,6,0.100,37091.000,0.200,23232.000,0.300,4868.000,0.500,532.000,1.000,279.000,5.000,1.000
"07/11/06","10:02:22","AMMA06",66258.000,"cc",28327.666,6.00,2832.767,1,6,0.100,37037.000,0.200,23329.000,0.300,4913.000,0.500,657.000,1.000,322.000,5.000,0
"07/11/06","10:02:28","AMMA06",66731.000,"cc",28289.773,6.00,2828.978,1,6,0.100,37276.000,0.200,23736.000,0.300,4858.000,0.500,582.000,1.000,278.000,5.000,1.000
"07/11/06","10:02:34","AMMA06",66038.000,"cc",28357.949,6.00,2835.795,1,6,0.100,37321.000,0.200,23284.000,0.300,4664.000,0.500,509.000,1.000,259.000,5.000,1.000
"07/11/06","10:02:40","AMMA06",66199.000,"cc",28316.910,6.00,2831.691,1,6,0.100,37474.000,0.200,23235.000,0.300,4745.000,0.500,505.000,1.000,239.000,5.000,1.000
"07/11/06","10:02:46","AMMA06",67517.000,"cc",28300.574,6.00,2830.058,1,6,0.100,37797.000,0.200,23612.000,0.300,5024.000,0.500,688.000,1.000,396.000,5.000,0
"07/11/06","10:02:52","AMMA06",67152.000,"cc",28321.928,6.00,2832.193,1,6,0.100,37872.000,0.200,23613.000,0.300,4849.000,0.500,517.000,1.000,300.000,5.000,1.000
"07/11/06","10:02:58","AMMA06",65962.000,"cc",28292.533,6.00,2829.253,1,6,0.100,37202.000,0.200,23295.000,0.300,4790.000,0.500,446.000,1.000,229.000,5.000,0
"07/11/06","10:03:04","AMMA06",66608.000,"cc",28310.816,6.00,2831.082,1,6,0.100,37504.000,0.200,23427.000,0.300,4879.000,0.500,528.000,1.000,270.000,5.000,0
"07/11/06","10:03:10","AMMA06",65770.000,"cc",28310.981,6.00,2831.098,1,6,0.100,36844.000,0.200,23648.000,0.300,4646.000,0.500,439.000,1.000,193.000,5.000,0
"07/11/06","10:03:16","AMMA06",67897.000,"cc",28392.838,6.00,2839.284,1,6,0.100,37763.000,0.200,23933.000,0.300,5078.000,0.500,730.000,1.000,393.000,5.000,0
"07/11/06","10:03:22","AMMA06",74154.000,"cc",28295.740,6.00,2829.574,1,6,0.100,39757.000,0.200,25492.000,0.300,6483.000,0.500,1435.000,1.000,987.000,5.000,0
"07/11/06","10:03:28","AMMA06",68912.000,"cc",28251.176,6.00,2825.118,1,6,0.100,38184.000,0.200,24036.000,0.300,5316.000,0.500,868.000,1.000,508.000,5.000,0
"07/11/06","10:03:34","AMMA06",66495.000,"cc",28366.248,6.00,2836.625,1,6,0.100,37144.000,0.200,23662.000,0.300,4883.000,0.500,532.000,1.000,273.000,5.000,1.000
"07/11/06","10:03:40","AMMA06",66419.000,"cc",28332.377,6.00,2833.238,1,6,0.100,37381.000,0.200,23470.000,0.300,4845.000,0.500,502.000,1.000,221.000,5.000,0
"07/11/06","10:03:46","AMMA06",65812.000,"cc",28274.652,6.00,2827.465,1,6,0.100,37141.000,0.200,23320.000,0.300,4712.000,0.500,437.000,1.000,202.000,5.000,0
"07/11/06","10:03:52","AMMA06",66719.000,"cc",28296.645,6.00,2829.665,1,6,0.100,37676.000,0.200,23678.000,0.300,4623.000,0.500,506.000,1.000,236.000,5.000,0
"07/11/06","10:03:58","AMMA06",66382.000,"cc",28315.299,6.00,2831.530,1,6,0.100,37589.000,0.200,23422.000,0.300,4687.000,0.500,474.000,1.000,210.000,5.000,0
"07/11/06","10:04:04","AMMA06",66095.000,"cc",28335.830,6.00,2833.583,1,6,0.100,37368.000,0.200,23399.000,0.300,4657.000,0.500,459.000,1.000,212.000,5.000,0
"07/11/06","10:04:10","AMMA06",65875.000,"cc",28322.615,6.00,2832.262,1,6,0.100,37284.000,0.200,23209.000,0.300,4706.000,0.500,456.000,1.000,220.000,5.000,0
"07/11/06","10:04:16","AMMA06",65642.000,"cc",28324.805,6.00,2832.481,1,6,0.100,37204.000,0.200,23252.000,0.300,4566.000,0.500,421.000,1.000,199.000,5.000,0
"07/11/06","10:04:22","AMMA06",64694.000,"cc",28313.408,6.00,2831.341,1,6,0.100,36688.000,0.200,23010.000,0.300,4426.000,0.500,406.000,1.000,164.000,5.000,0
"07/11/06","10:04:28","AMMA06",66573.000,"cc",28334.090,6.00,2833.409,1,6,0.100,37371.000,0.200,23367.000,0.300,4947.000,0.500,582.000,1.000,306.000,5.000,0
"07/11/06","10:04:34","AMMA06",64940.000,"cc",28309.940,6.00,2830.994,1,6,0.100,36700.000,0.200,22982.000,0.300,4626.000,0.500,435.000,1.000,197.000,5.000,0
"07/11/06","10:04:40","AMMA06",65444.000,"cc",28282.898,6.00,2828.290,1,6,0.100,37111.000,0.200,23078.000,0.300,4654.000,0.500,408.000,1.000,193.000,5.000,0
"07/11/06","10:04:46","AMMA06",65056.000,"cc",28306.393,6.00,2830.639,1,6,0.100,36695.000,0.200,23081.000,0.300,4666.000,0.500,435.000,1.000,179.000,5.000,0
"07/11/06","10:04:52","AMMA06",65263.000,"cc",28309.154,6.00,2830.916,1,6,0.100,36675.000,0.200,23250.000,0.300,4670.000,0.500,428.000,1.000,240.000,5.000,0
"07/11/06","10:04:58","AMMA06",64823.000,"cc",28324.443,6.00,2832.445,1,6,0.100,36468.000,0.200,23128.000,0.300,4630.000,0.500,418.000,1.000,179.000,5.000,0
"07/11/06","10:05:04","AMMA06",66303.000,"cc",28291.293,6.00,2829.129,1,6,0.100,36817.000,0.200,23632.000,0.300,4923.000,0.500,628.000,1.000,303.000,5.000,0
"07/11/06","10:05:10","AMMA06",66761.000,"cc",28363.670,6.00,2836.367,1,6,0.100,37184.000,0.200,23580.000,0.300,4974.000,0.500,678.000,1.000,345.000,5.000,0
"07/11/06","10:05:16","AMMA06",66033.000,"cc",28320.098,6.00,2832.010,1,6,0.100,37087.000,0.200,23279.000,0.300,4823.000,0.500,560.000,1.000,284.000,5.000,0
"07/11/06","10:05:22","AMMA06",66750.000,"cc",28338.572,6.00,2833.857,1,6,0.100,37262.000,0.200,23539.000,0.300,4988.000,0.500,621.000,1.000,340.000,5.000,0
"07/11/06","10:05:28","AMMA06",65295.000,"cc",28249.365,6.00,2824.937,1,6,0.100,36713.000,0.200,23205.000,0.300,4669.000,0.500,458.000,1.000,250.000,5.000,0
"07/11/06","10:05:34","AMMA06",65092.000,"cc",28326.260,6.00,2832.626,1,6,0.100,36598.000,0.200,23136.000,0.300,4644.000,0.500,468.000,1.000,246.000,5.000,0
"07/11/06","10:05:40","AMMA06",64403.000,"cc",28367.998,6.00,2836.800,1,6,0.100,36280.000,0.200,22911.000,0.300,4556.000,0.500,426.000,1.000,230.000,5.000,0
"07/11/06","10:05:46","AMMA06",65414.000,"cc",28271.029,6.00,2827.103,1,6,0.100,36798.000,0.200,23150.000,0.300,4830.000,0.500,429.000,1.000,207.000,5.000,0
"07/11/06","10:05:52","AMMA06",65191.000,"cc",28313.281,6.00,2831.328,1,6,0.100,36362.000,0.200,23441.000,0.300,4686.000,0.500,466.000,1.000,236.000,5.000,0
"07/11/06","10:05:58","AMMA06",65121.000,"cc",28340.654,6.00,2834.066,1,6,0.100,36755.000,0.200,23146.000,0.300,4617.000,0.500,408.000,1.000,195.000,5.000,0
"07/11/06","10:06:04","AMMA06",65290.000,"cc",28366.316,6.00,2836.632,1,6,0.100,36770.000,0.200,23400.000,0.300,4538.000,0.500,400.000,1.000,182.000,5.000,0
"07/11/06","10:06:10","AMMA06",64309.000,"cc",28327.592,6.00,2832.759,1,6,0.100,36196.000,0.200,22870.000,0.300,4668.000,0.500,385.000,1.000,190.000,5.000,0
"07/11/06","10:06:16","AMMA06",65060.000,"cc",28314.805,6.00,2831.481,1,6,0.100,36538.000,0.200,23199.000,0.300,4684.000,0.500,422.000,1.000,216.000,5.000,1.000
"07/11/06","10:06:22","AMMA06",64745.000,"cc",28307.422,6.00,2830.742,1,6,0.100,36466.000,0.200,23085.000,0.300,4578.000,0.500,430.000,1.000,186.000,5.000,0
"07/11/06","10:06:28","AMMA06",64822.000,"cc",28317.315,6.00,2831.732,1,6,0.100,36327.000,0.200,23304.000,0.300,4633.000,0.500,397.000,1.000,160.000,5.000,1.000
"07/11/06","10:06:34","AMMA06",64833.000,"cc",28289.674,6.00,2828.968,1,6,0.100,36369.000,0.200,23347.000,0.300,4566.000,0.500,384.000,1.000,167.000,5.000,0
"07/11/06","10:06:40","AMMA06",64742.000,"cc",28327.272,6.00,2832.727,1,6,0.100,36493.000,0.200,23195.000,0.300,4481.000,0.500,394.000,1.000,179.000,5.000,0
"07/11/06","10:06:46","AMMA06",64777.000,"cc",28341.039,6.00,2834.104,1,6,0.100,36599.000,0.200,23142.000,0.300,4495.000,0.500,363.000,1.000,178.000,5.000,0
"07/11/06","10:06:52","AMMA06",64885.000,"cc",28280.613,6.00,2828.062,1,6,0.100,36664.000,0.200,23074.000,0.300,4578.000,0.500,403.000,1.000,166.000,5.000,0
"07/11/06","10:06:58","AMMA06",65003.000,"cc",28282.996,6.00,2828.300,1,6,0.100,36708.000,0.200,23233.000,0.300,4562.000,0.500,358.000,1.000,142.000,5.000,0
"07/11/06","10:07:04","AMMA06",64935.000,"cc",28312.273,6.00,2831.228,1,6,0.100,36675.000,0.200,23262.000,0.300,4492.000,0.500,336.000,1.000,170.000,5.000,0
"07/11/06","10:07:10","AMMA06",64717.000,"cc",28319.625,6.00,2831.963,1,6,0.100,36443.000,0.200,23226.000,0.300,4529.000,0.500,337.000,1.000,182.000,5.000,0
"07/11/06","10:07:16","AMMA06",65002.000,"cc",28323.307,6.00,2832.331,1,6,0.100,36827.000,0.200,23113.000,0.300,4488.000,0.500,401.000,1.000,173.000,5.000,0
"07/11/06","10:07:22","AMMA06",65188.000,"cc",28306.119,6.00,2830.612,1,6,0.100,36724.000,0.200,23201.000,0.300,4621.000,0.500,414.000,1.000,228.000,5.000,0
"07/11/06","10:07:28","AMMA06",65059.000,"cc",28334.869,6.00,2833.487,1,6,0.100,36770.000,0.200,23183.000,0.300,4552.000,0.500,361.000,1.000,193.000,5.000,0
"07/11/06","10:07:34","AMMA06",65119.000,"cc",28342.254,6.00,2834.226,1,6,0.100,36822.000,0.200,23178.000,0.300,4589.000,0.500,339.000,1.000,191.000,5.000,0
"07/11/06","10:07:40","AMMA06",64818.000,"cc",28301.111,6.00,2830.111,1,6,0.100,36605.000,0.200,23136.000,0.300,4561.000,0.500,342.000,1.000,173.000,5.000,1.000
"07/11/06","10:07:46","AMMA06",65783.000,"cc",28321.607,6.00,2832.161,1,6,0.100,37082.000,0.200,23315.000,0.300,4591.000,0.500,500.000,1.000,295.000,5.000,0
"07/11/06","10:07:52","AMMA06",65418.000,"cc",28331.893,6.00,2833.190,1,6,0.100,37061.000,0.200,22997.000,0.300,4680.000,0.500,473.000,1.000,207.000,5.000,0
"07/11/06","10:07:58","AMMA06",65560.000,"cc",28330.856,6.00,2833.086,1,6,0.100,36927.000,0.200,23422.000,0.300,4602.000,0.500,385.000,1.000,224.000,5.000,0
"07/11/06","10:08:04","AMMA06",65377.000,"cc",28327.344,6.00,2832.735,1,6,0.100,36679.000,0.200,23371.000,0.300,4684.000,0.500,432.000,1.000,211.000,5.000,0
"07/11/06","10:08:10","AMMA06",65881.000,"cc",28331.336,6.00,2833.134,1,6,0.100,36708.000,0.200,23636.000,0.300,4789.000,0.500,466.000,1.000,282.000,5.000,0
"07/11/06","10:08:16","AMMA06",65878.000,"cc",28335.205,6.00,2833.521,1,6,0.100,36998.000,0.200,23632.000,0.300,4628.000,0.500,424.000,1.000,196.000,5.000,0
"07/11/06","10:08:22","AMMA06",65687.000,"cc",28329.305,6.00,2832.931,1,6,0.100,36585.000,0.200,23668.000,0.300,4789.000,0.500,443.000,1.000,202.000,5.000,0
"07/11/06","10:08:28","AMMA06",66298.000,"cc",28279.463,6.00,2827.947,1,6,0.100,36759.000,0.200,24048.000,0.300,4783.000,0.500,465.000,1.000,243.000,5.000,0
"07/11/06","10:08:34","AMMA06",66062.000,"cc",28332.039,6.00,2833.204,1,6,0.100,36921.000,0.200,23806.000,0.300,4675.000,0.500,440.000,1.000,220.000,5.000,0
"07/11/06","10:08:40","AMMA06",66290.000,"cc",28292.992,6.00,2829.299,1,6,0.100,36820.000,0.200,24091.000,0.300,4718.000,0.500,442.000,1.000,218.000,5.000,1.000
"07/11/06","10:08:46","AMMA06",67389.000,"cc",28264.244,6.00,2826.425,1,6,0.100,36901.000,0.200,24537.000,0.300,5086.000,0.500,591.000,1.000,274.000,5.000,0
"07/11/06","10:08:52","AMMA06",67784.000,"cc",28280.584,6.00,2828.059,1,6,0.100,36988.000,0.200,24953.000,0.300,4921.000,0.500,609.000,1.000,313.000,5.000,0
"07/11/06","10:08:58","AMMA06",67433.000,"cc",28308.148,6.00,2830.815,1,6,0.100,36811.000,0.200,24783.000,0.300,4979.000,0.500,584.000,1.000,276.000,5.000,0
"07/11/06","10:09:04","AMMA06",67368.000,"cc",28343.572,6.00,2834.357,1,6,0.100,36996.000,0.200,24796.000,0.300,4773.000,0.500,499.000,1.000,304.000,5.000,0
"07/11/06","10:09:10","AMMA06",70207.000,"cc",28358.236,6.00,2835.824,1,6,0.100,37575.000,0.200,25535.000,0.300,5540.000,0.500,988.000,1.000,569.000,5.000,0
"07/11/06","10:09:16","AMMA06",68100.000,"cc",28299.068,6.00,2829.907,1,6,0.100,36983.000,0.200,25017.000,0.300,5137.000,0.500,612.000,1.000,350.000,5.000,1.000
"07/11/06","10:09:22","AMMA06",67822.000,"cc",28300.916,6.00,2830.092,1,6,0.100,36783.000,0.200,25079.000,0.300,5132.000,0.500,531.000,1.000,297.000,5.000,0
"07/11/06","10:09:28","AMMA06",68633.000,"cc",28326.674,6.00,2832.668,1,6,0.100,37016.000,0.200,25229.000,0.300,5251.000,0.500,729.000,1.000,407.000,5.000,1.000
"07/11/06","10:09:34","AMMA06",73033.000,"cc",28379.303,6.00,2837.930,1,6,0.100,38505.000,0.200,26229.000,0.300,6121.000,0.500,1319.000,1.000,859.000,5.000,0
"07/11/06","10:09:40","AMMA06",71191.000,"cc",28321.971,6.00,2832.197,1,6,0.100,37950.000,0.200,25958.000,0.300,5680.000,0.500,981.000,1.000,621.000,5.000,1.000
"07/11/06","10:09:46","AMMA06",72080.000,"cc",28302.594,6.00,2830.260,1,6,0.100,38182.000,0.200,26041.000,0.300,5879.000,0.500,1166.000,1.000,812.000,5.000,0
"07/11/06","10:09:52","AMMA06",72014.000,"cc",28287.691,6.00,2828.769,1,6,0.100,39436.000,0.200,25362.000,0.300,5729.000,0.500,938.000,1.000,549.000,5.000,0
"07/11/06","10:09:58","AMMA06",71246.000,"cc",28313.471,6.00,2831.347,1,6,0.100,39462.000,0.200,25460.000,0.300,5370.000,0.500,614.000,1.000,340.000,5.000,0
"07/11/06","10:10:04","AMMA06",67351.000,"cc",28343.123,6.00,2834.313,1,6,0.100,37107.000,0.200,24543.000,0.300,4860.000,0.500,528.000,1.000,313.000,5.000,0
"07/11/06","10:10:10","AMMA06",67356.000,"cc",28357.059,6.00,2835.706,1,6,0.100,36743.000,0.200,24567.000,0.300,5034.000,0.500,649.000,1.000,363.000,5.000,0
"07/11/06","10:10:16","AMMA06",67114.000,"cc",28306.443,6.00,2830.645,1,6,0.100,37019.000,0.200,24381.000,0.300,4859.000,0.500,566.000,1.000,289.000,5.000,0
"07/11/06","10:10:22","AMMA06",66784.000,"cc",28300.297,6.00,2830.030,1,6,0.100,36596.000,0.200,24357.000,0.300,5020.000,0.500,534.000,1.000,276.000,5.000,1.000
"07/11/06","10:10:28","AMMA06",66508.000,"cc",28353.100,6.00,2835.310,1,6,0.100,36582.000,0.200,24149.000,0.300,4954.000,0.500,549.000,1.000,274.000,5.000,0
"07/11/06","10:10:34","AMMA06",67898.000,"cc",28305.008,6.00,2830.501,1,6,0.100,37419.000,0.200,24392.000,0.300,5057.000,0.500,673.000,1.000,357.000,5.000,0
"07/11/06","10:10:40","AMMA06",67455.000,"cc",28251.793,6.00,2825.179,1,6,0.100,37227.000,0.200,24400.000,0.300,4993.000,0.500,567.000,1.000,268.000,5.000,0
"07/11/06","10:10:46","AMMA06",67099.000,"cc",28323.631,6.00,2832.363,1,6,0.100,36730.000,0.200,24675.000,0.300,4926.000,0.500,500.000,1.000,268.000,5.000,0
"07/11/06","10:10:52","AMMA06",67161.000,"cc",28348.154,6.00,2834.816,1,6,0.100,37151.000,0.200,24383.000,0.300,4865.000,0.500,522.000,1.000,240.000,5.000,0
"07/11/06","10:10:58","AMMA06",66941.000,"cc",28292.047,6.00,2829.205,1,6,0.100,36988.000,0.200,24431.000,0.300,4780.000,0.500,481.000,1.000,260.000,5.000,1.000
"07/11/06","10:11:04","AMMA06",67213.000,"cc",28303.330,6.00,2830.333,1,6,0.100,37200.000,0.200,24381.000,0.300,4884.000,0.500,481.000,1.000,267.000,5.000,0
"07/11/06","10:11:10","AMMA06",66879.000,"cc",28346.334,6.00,2834.634,1,6,0.100,36830.000,0.200,24553.000,0.300,4775.000,0.500,500.000,1.000,221.000,5.000,0
"07/11/06","10:11:16","AMMA06",67534.000,"cc",28328.428,6.00,2832.843,1,6,0.100,37077.000,0.200,24831.000,0.300,4869.000,0.500,498.000,1.000,259.000,5.000,0
"07/11/06","10:11:22","AMMA06",67088.000,"cc",28317.584,6.00,2831.759,1,6,0.100,36729.000,0.200,24682.000,0.300,4968.000,0.500,472.000,1.000,237.000,5.000,0
"07/11/06","10:11:28","AMMA06",67482.000,"cc",28346.953,6.00,2834.696,1,6,0.100,36988.000,0.200,24902.000,0.300,4848.000,0.500,478.000,1.000,266.000,5.000,0
"07/11/06","10:11:34","AMMA06",71915.000,"cc",28291.791,6.00,2829.179,1,6,0.100,37993.000,0.200,25919.000,0.300,5987.000,0.500,1229.000,1.000,787.000,5.000,0
"07/11/06","10:11:40","AMMA06",68785.000,"cc",28294.527,6.00,2829.453,1,6,0.100,37014.000,0.200,25483.000,0.300,5124.000,0.500,755.000,1.000,409.000,5.000,0
"07/11/06","10:11:46","AMMA06",68523.000,"cc",28306.377,6.00,2830.638,1,6,0.100,37156.000,0.200,25278.000,0.300,5063.000,0.500,665.000,1.000,361.000,5.000,0
"07/11/06","10:11:52","AMMA06",67674.000,"cc",28322.270,6.00,2832.227,1,6,0.100,36802.000,0.200,25141.000,0.300,4910.000,0.500,558.000,1.000,263.000,5.000,0
"07/11/06","10:11:58","AMMA06",68375.000,"cc",28304.707,6.00,2830.471,1,6,0.100,36982.000,0.200,25265.000,0.300,5145.000,0.500,641.000,1.000,342.000,5.000,0
"07/11/06","10:12:04","AMMA06",67577.000,"cc",28313.266,6.00,2831.327,1,6,0.100,36929.000,0.200,24885.000,0.300,4958.000,0.500,511.000,1.000,293.000,5.000,1.000
"07/11/06","10:12:10","AMMA06",68744.000,"cc",28243.402,6.00,2824.340,1,6,0.100,37350.000,0.200,25248.000,0.300,5142.000,0.500,654.000,1.000,350.000,5.000,0
"07/11/06","10:12:16","AMMA06",68159.000,"cc",28375.150,6.00,2837.515,1,6,0.100,36758.000,0.200,25217.000,0.300,5177.000,0.500,675.000,1.000,332.000,5.000,0
"07/11/06","10:12:22","AMMA06",67846.000,"cc",28312.840,6.00,2831.284,1,6,0.100,36818.000,0.200,25161.000,0.300,4972.000,0.500,591.000,1.000,304.000,5.000,0
"07/11/06","10:12:28","AMMA06",70421.000,"cc",28328.016,6.00,2832.802,1,6,0.100,37877.000,0.200,25568.000,0.300,5513.000,0.500,942.000,1.000,521.000,5.000,0
"07/11/06","10:12:34","AMMA06",69070.000,"cc",28314.369,6.00,2831.437,1,6,0.100,37194.000,0.200,25164.000,0.300,5472.000,0.500,796.000,1.000,444.000,5.000,0
"07/11/06","10:12:40","AMMA06",67270.000,"cc",28342.398,6.00,2834.240,1,6,0.100,36699.000,0.200,24631.000,0.300,4982.000,0.500,626.000,1.000,332.000,5.000,0
"07/11/06","10:12:46","AMMA06",66512.000,"cc",28301.152,6.00,2830.116,1,6,0.100,36310.000,0.200,24501.000,0.300,4881.000,0.500,542.000,1.000,278.000,5.000,0
"07/11/06","10:12:52","AMMA06",68200.000,"cc",28318.520,6.00,2831.852,1,6,0.100,37107.000,0.200,24936.000,0.300,5182.000,0.500,620.000,1.000,355.000,5.000,0
"07/11/06","10:12:58","AMMA06",65531.000,"cc",28327.440,6.00,2832.744,1,6,0.100,35786.000,0.200,24455.000,0.300,4674.000,0.500,425.000,1.000,191.000,5.000,0
"07/11/06","10:13:04","AMMA06",65505.000,"cc",28345.018,6.00,2834.502,1,6,0.100,35954.000,0.200,24308.000,0.300,4591.000,0.500,437.000,1.000,215.000,5.000,0
"07/11/06","10:13:10","AMMA06",65387.000,"cc",28336.502,6.00,2833.650,1,6,0.100,36033.000,0.200,24194.000,0.300,4567.000,0.500,408.000,1.000,185.000,5.000,0
"07/11/06","10:13:16","AMMA06",65536.000,"cc",28341.744,6.00,2834.175,1,6,0.100,36039.000,0.200,24139.000,0.300,4751.000,0.500,420.000,1.000,187.000,5.000,0
"07/11/06","10:13:22","AMMA06",65874.000,"cc",28284.412,6.00,2828.441,1,6,0.100,35957.000,0.200,24472.000,0.300,4733.000,0.500,483.000,1.000,229.000,5.000,0
"07/11/06","10:13:28","AMMA06",66182.000,"cc",28303.551,6.00,2830.355,1,6,0.100,36051.000,0.200,24628.000,0.300,4823.000,0.500,472.000,1.000,208.000,5.000,0
"07/11/06","10:13:34","AMMA06",69688.000,"cc",28304.400,6.00,2830.440,1,6,0.100,37283.000,0.200,25373.000,0.300,5378.000,0.500,1021.000,1.000,633.000,5.000,0
"07/11/06","10:13:40","AMMA06",67419.000,"cc",28346.891,6.00,2834.689,1,6,0.100,36626.000,0.200,24758.000,0.300,4994.000,0.500,681.000,1.000,360.000,5.000,0
"07/11/06","10:13:46","AMMA06",67458.000,"cc",28320.779,6.00,2832.078,1,6,0.100,36390.000,0.200,24902.000,0.300,5097.000,0.500,680.000,1.000,389.000,5.000,0
"07/11/06","10:13:52","AMMA06",67989.000,"cc",28285.879,6.00,2828.588,1,6,0.100,36765.000,0.200,24895.000,0.300,5105.000,0.500,784.000,1.000,440.000,5.000,0
"07/11/06","10:13:58","AMMA06",67491.000,"cc",28300.400,6.00,2830.040,1,6,0.100,36339.000,0.200,24936.000,0.300,5146.000,0.500,677.000,1.000,393.000,5.000,0
"07/11/06","10:14:04","AMMA06",67083.000,"cc",28278.637,6.00,2827.864,1,6,0.100,36453.000,0.200,24621.000,0.300,5029.000,0.500,625.000,1.000,355.000,5.000,0
"07/11/06","10:14:10","AMMA06",67321.000,"cc",28359.625,6.00,2835.963,1,6,0.100,36427.000,0.200,24859.000,0.300,4954.000,0.500,704.000,1.000,377.000,5.000,0
"07/11/06","10:14:16","AMMA06",65974.000,"cc",28316.361,6.00,2831.636,1,6,0.100,36103.000,0.200,24483.000,0.300,4714.000,0.500,456.000,1.000,218.000,5.000,0